Regional Weather Roundup
Issued by NWS

Home | Current Version | Previous Version | Graphics & Text | Print | Product List | Glossary On
Versions: 1 2 3 4 5 6 7 8 9 10 11 12 13 14 15 16 17 18 19 20 21 22 23 24 25 26 27 28 29 30 31 32 33 34 35 36 37 38 39 40 41 42 43 44 45 46 47 48 49 50
000
ASUS43 KLMK 230202
RWRKY
KENTUCKY REGIONAL WEATHER ROUNDUP
NATIONAL WEATHER SERVICE LOUISVILLE KY
1000 PM EDT WED OCT 22 2014

NOTE "FAIR" INDICATES FEW OR NO CLOUDS BELOW 12,000 FEET
WITH NO SIGNIFICANT WEATHER AND/OR OBSTRUCTIONS TO VISIBILITY.

KYZ001>023-026-027-061>063-070>075-230300-
WESTERN AND SOUTH CENTRAL KENTUCKY

CITY           SKY/WX    TMP DP  RH WIND       PRES   REMARKS
PADUCAH        CLEAR     45  42  89 CALM      30.21F
HENDERSON      CLEAR    N/A N/A N/A CALM      30.23S
OWENSBORO      CLEAR     52  42  68 NE5       30.23F
HOPKINSVILLE   CLEAR     49  41  74 NE3       30.22S
BOWLING GREEN  CLEAR     49  41  74 E9        30.24R
GLASGOW        NOT AVBL
$$

KYZ024-025-028>034-038-045-046-053-230300-
NORTH CENTRAL KENTUCKY

CITY           SKY/WX    TMP DP  RH WIND       PRES   REMARKS
LOUISVILLE/SDF CLEAR     51  41  68 E10       30.25S
LOUISVILLE/LOU CLEAR     51  40  65 E6        30.26S
FORT KNOX      CLEAR     48  41  76 NE3       30.23S
$$

KYZ035>037-039>044-047>052-055>060-089>105-230300-
NORTHEAST KENTUCKY

CITY           SKY/WX    TMP DP  RH WIND       PRES   REMARKS
LEXINGTON      CLOUDY    52  41  66 NE5       30.27R
COVINGTON      PTCLDY    49  39  68 NE6       30.27S
FRANKFORT      MOCLDY    49  40  71 NE6       30.26S
$$

KYZ054-064>069-076>088-106>120-230300-
SOUTHEAST KENTUCKY

CITY           SKY/WX    TMP DP  RH WIND       PRES   REMARKS
JACKSON        CLOUDY    48  41  76 CALM      30.24S
LONDON         CLOUDY    49  41  74 N5        30.25R
SOMERSET       CLOUDY    46  39  76 CALM      30.26F
MIDDLESBORO    CLOUDY    49  41  73 E3        30.24S
MONTICELLO     CLOUDY    47  43  86 CALM      30.27R
$$




USA.gov is the U.S. government's official web portal to all federal, state and local government web resources and services.